GEFSSE_500_meanwind_246.txt.gz
Wind_Speed
12 12 12 11 11 10 9 9 9 8 8 7 7 7 6 6 6 7 6 6 5 5 4 3 3 3 3 2 2 2 1 1 1 1 2 2 3 3 4 5 5 6 6
14 13 13 13 12 11 11 10 10 9 9 8 8 7 7 7 7 7 7 6 6 5 4 3 3 2 2 1 1 1 1 1 1 0 1 1 1 2 3 4 4 5 6
15 15 14 14 13 12 12 11 11 11 10 9 9 8 8 8 7 7 7 7 6 6 5 4 4 2 2 1 1 0 0 0 0 0 0 0 1 1 2 3 4 5 5
16 16 15 15 14 14 13 13 12 12 11 11 10 10 9 9 8 8 8 8 7 7 6 5 4 3 3 2 1 1 1 1 2 1 1 1 1 2 2 3 4 5 5
18 17 16 16 15 15 14 14 13 13 12 12 12 11 10 10 10 9 9 9 9 8 7 6 5 5 4 3 3 2 2 3 3 3 3 3 3 3 4 4 4 5 5
19 18 18 17 17 16 16 15 15 14 14 13 13 13 12 11 10 10 10 10 10 9 8 8 7 6 6 5 5 4 3 4 4 4 3 4 4 4 4 4 5 5 6
21 20 19 19 18 17 17 16 16 16 15 15 14 13 13 12 11 12 11 11 11 11 10 9 9 8 7 7 6 6 6 5 4 5 5 5 5 5 5 5 6 6 6
23 22 21 20 19 19 19 18 17 17 16 16 15 14 14 14 13 12 13 12 12 12 11 11 10 10 9 8 7 7 7 7 6 6 6 6 6 6 6 6 7 7 7
25 24 23 22 21 21 20 20 19 18 18 17 17 16 15 14 14 14 13 13 13 13 13 12 12 11 10 10 9 9 8 8 8 8 8 8 7 7 8 8 8 8 8
27 26 25 24 23 23 22 21 21 20 19 19 18 18 16 16 15 14 14 14 14 14 13 13 12 12 12 11 11 10 10 10 9 9 9 9 9 9 9 9 9 9 10
29 28 27 27 26 25 24 23 22 22 21 21 20 19 18 17 16 15 15 14 14 14 14 14 13 13 13 13 12 12 12 11 11 11 11 11 11 11 11 11 11 11 11
31 30 29 29 28 27 26 25 24 23 23 23 22 21 20 19 18 17 16 16 15 16 15 15 15 15 15 14 14 14 13 13 13 12 12 12 13 13 13 13 13 13 13
33 33 32 31 29 28 27 27 26 25 25 25 24 23 22 21 20 19 19 18 17 17 17 16 16 16 16 16 16 16 15 15 14 14 14 14 14 14 14 15 14 15 15
36 34 34 33 31 30 29 29 28 27 26 26 26 25 24 23 23 22 21 20 19 18 18 18 18 17 17 17 17 17 17 17 17 17 16 16 16 16 16 16 16 17 16
38 37 36 35 34 32 31 30 29 29 29 28 27 27 26 25 24 24 23 22 21 20 20 19 19 19 18 18 18 18 18 18 19 19 19 18 18 18 18 18 18 18 18
39 39 38 37 36 35 33 32 31 31 30 29 29 28 28 27 26 26 25 24 24 23 22 21 21 20 20 20 20 19 19 19 19 20 20 20 20 20 19 19 19 18 19
41 40 39 38 38 37 35 34 33 32 32 31 30 30 30 28 27 27 26 26 25 25 24 24 23 22 22 21 21 21 21 21 20 20 21 21 22 22 21 21 21 20 20
44 42 42 41 39 39 38 36 35 34 33 32 32 32 32 30 29 29 28 27 27 26 25 25 24 24 24 23 22 22 22 22 22 22 22 22 23 23 23 23 23 23 23
46 45 44 43 42 41 40 38 37 36 35 34 33 33 33 32 31 31 30 29 29 28 27 26 26 25 25 25 24 24 23 23 24 24 23 24 24 24 24 24 24 24 24
49 48 46 45 44 43 42 41 40 39 38 37 36 35 34 34 33 32 31 30 30 30 29 28 28 27 27 27 27 26 26 25 25 25 26 25 25 25 25 25 25 26 25
51 50 49 47 46 44 44 43 42 41 41 39 39 38 37 36 35 34 33 32 32 32 31 30 30 30 30 29 29 29 28 28 28 27 27 27 26 27 27 26 26 26 26
53 52 51 49 48 46 45 44 43 43 42 41 40 39 39 38 37 35 34 34 34 33 33 32 31 31 31 31 31 30 30 30 30 29 29 28 28 28 28 27 27 28 28
54 53 52 50 49 48 46 45 44 43 43 42 41 41 40 40 39 37 36 36 35 35 34 34 33 32 32 32 31 31 31 31 30 30 30 29 29 29 29 28 29 29 29
54 54 53 52 50 49 48 46 45 44 43 42 42 42 41 41 41 39 39 38 37 36 35 35 34 34 33 33 32 32 31 31 30 30 30 29 30 30 30 30 30 30 30
54 54 54 53 52 51 49 48 46 45 44 43 43 43 42 43 43 42 41 40 39 38 37 36 36 35 35 35 34 33 33 32 32 31 30 30 30 30 30 31 31 30 31
55 54 54 54 53 52 51 50 48 46 45 44 43 43 43 43 43 43 43 42 41 40 39 38 38 37 37 36 36 35 35 34 33 33 33 32 32 32 33 32 32 32 31

GEFSSE_500_meanwind_252.txt.gz
Wind_Speed
14 14 13 13 13 13 12 12 11 10 10 10 10 10 9 9 10 10 9 9 9 9 8 7 7 7 6 5 5 4 4 3 3 3 3 3 4 4 4 5 5 6 6
15 15 14 14 14 14 14 13 12 11 11 10 10 10 10 9 10 10 9 9 9 8 8 7 7 6 5 5 4 3 3 3 2 2 3 3 3 3 3 4 4 5 6
16 16 15 15 15 15 15 14 13 12 12 11 11 11 10 10 10 10 10 9 9 8 8 7 6 6 5 4 3 3 3 2 2 2 2 2 2 2 2 3 4 4 5
18 17 17 16 16 16 16 16 15 14 13 12 12 12 11 11 11 10 10 10 9 9 8 7 6 5 4 4 3 3 3 2 2 1 1 1 1 1 2 2 3 4 4
20 19 18 18 18 17 17 17 16 15 15 14 13 13 12 12 12 11 11 10 10 9 9 8 7 6 5 4 4 3 3 3 2 1 1 0 1 1 1 2 3 4 4
21 20 20 19 19 19 18 18 17 17 16 15 14 14 13 13 13 12 11 11 11 10 10 9 8 8 6 5 5 4 4 3 2 1 1 1 1 2 2 2 3 4 4
23 22 21 21 21 20 20 19 19 18 17 16 16 15 14 14 14 13 12 12 12 11 11 10 9 9 8 7 6 5 5 4 3 3 2 2 2 3 3 3 4 4 4
25 24 23 22 22 22 21 21 20 19 18 18 17 16 16 15 14 14 14 14 13 12 12 11 11 10 9 9 8 7 6 5 5 4 4 4 4 4 4 4 4 5 5
27 26 26 25 24 23 23 22 21 20 19 19 18 18 17 16 15 15 14 14 14 14 13 12 12 11 11 11 10 9 8 7 7 6 6 6 6 6 5 5 5 6 6
28 28 28 27 26 25 25 24 23 22 21 21 20 19 19 18 17 16 15 15 15 15 15 14 13 12 13 12 12 11 10 9 8 8 7 7 7 7 7 7 7 7 8
30 30 29 29 29 28 27 26 25 24 23 23 22 21 21 20 19 18 17 17 16 17 16 15 15 14 14 13 13 13 12 11 10 10 9 9 9 9 9 9 9 9 9
32 32 31 31 31 30 29 28 27 26 25 24 23 23 22 22 21 20 19 18 17 17 18 17 16 15 15 14 14 14 14 13 12 11 11 10 10 10 10 10 10 10 10
35 34 33 33 33 32 31 30 29 28 27 26 25 25 24 23 23 22 21 20 19 19 18 18 17 16 16 16 15 15 15 15 14 13 13 12 12 12 11 11 11 12 12
37 36 36 35 34 34 33 32 30 29 28 27 27 26 26 25 25 24 23 22 21 20 20 19 19 18 17 17 16 16 16 16 16 15 15 14 14 14 13 13 13 14 14
39 39 38 37 36 35 34 33 32 31 30 29 29 29 28 27 26 25 24 24 23 22 21 21 20 20 18 18 18 17 17 17 17 17 17 16 16 16 15 15 15 15 15
42 41 40 39 38 37 36 35 34 33 33 32 30 30 30 29 28 26 26 26 25 24 24 23 22 21 20 19 19 19 18 18 18 18 18 18 18 18 18 18 17 17 17
44 43 43 42 41 40 38 37 36 35 35 34 33 31 30 30 29 28 27 27 26 26 25 24 23 23 22 21 21 21 21 20 20 20 19 19 19 19 19 19 19 19 19
47 46 45 45 44 42 41 40 39 38 37 36 35 34 32 31 31 29 28 28 28 27 26 26 25 24 24 23 23 22 22 22 22 21 21 20 20 20 20 20 20 20 20
49 48 47 47 46 45 44 42 41 40 39 38 37 36 35 34 32 31 30 29 29 29 28 27 27 26 25 25 25 24 24 23 23 23 23 22 22 22 22 22 22 22 22
51 50 50 49 48 47 46 45 44 42 41 40 38 38 37 36 35 34 32 31 30 30 30 29 28 28 27 26 26 26 25 25 24 24 24 24 24 24 24 23 23 23 23
54 53 52 51 50 48 47 46 45 44 44 42 40 39 38 38 37 36 35 33 32 31 31 31 29 29 28 28 27 27 27 26 26 25 25 25 25 25 25 25 25 25 25
55 54 54 52 51 50 49 47 46 46 45 44 43 41 40 39 38 37 36 35 34 33 32 32 32 30 29 29 29 29 28 27 27 27 26 26 26 26 26 25 26 26 26
57 55 54 53 52 52 50 49 48 47 46 45 44 43 42 41 40 39 39 38 37 35 34 34 33 33 31 30 30 30 29 29 29 28 28 28 27 27 26 27 27 27 27
57 56 55 54 54 53 52 51 49 48 47 46 45 44 44 43 42 40 40 39 39 38 36 35 35 35 33 32 31 31 30 30 30 29 29 29 28 27 27 27 27 27 28
57 57 56 56 55 54 53 53 51 50 49 48 47 46 46 44 43 42 41 40 39 39 38 37 37 37 36 34 33 33 32 31 31 31 30 30 29 29 28 28 28 29 28
58 57 57 57 56 55 54 53 53 52 51 51 50 48 47 46 45 44 42 41 41 40 39 39 38 38 38 37 35 34 34 33 32 31 31 31 31 30 30 30 30 30 30

GEFSSE_500_meanwind_258.txt.gz
Wind_Speed
15 14 14 14 14 14 13 12 12 11 11 11 10 10 9 9 9 9 8 8 8 8 7 7 6 6 5 5 4 4 4 4 4 4 4 5 5 6 6 6 7 7 7
16 15 15 15 15 15 14 14 13 12 12 11 11 11 10 10 9 9 9 8 8 8 7 7 6 5 5 5 4 4 3 3 3 3 3 4 4 4 5 6 6 6 6
18 17 17 17 16 16 16 15 14 13 13 12 11 11 11 11 10 10 9 9 9 8 7 7 6 5 5 5 4 4 3 3 2 2 3 3 3 3 4 4 5 5 6
20 19 18 18 18 18 17 17 16 15 14 13 13 12 12 11 11 10 10 9 9 9 8 7 6 5 5 4 4 4 3 2 2 1 2 2 2 2 2 3 4 4 5
21 21 20 20 19 19 19 18 17 16 15 15 14 13 13 12 11 11 11 10 10 9 9 8 7 6 5 5 4 3 3 2 1 1 1 1 1 1 2 2 3 4 5
23 23 22 21 21 21 20 19 18 18 17 16 15 14 14 13 12 11 11 11 11 10 10 9 8 7 6 5 5 4 3 3 2 1 1 0 1 1 2 2 3 4 4
25 25 24 23 22 22 21 20 20 19 18 17 17 16 15 14 14 13 12 12 12 11 11 10 9 9 8 7 6 5 4 3 3 2 2 2 2 2 2 3 3 4 4
27 27 26 25 24 24 23 22 21 20 19 19 18 17 17 16 15 14 13 13 12 12 12 11 10 10 10 9 8 7 6 5 4 4 3 3 3 3 4 4 4 4 5
29 29 28 27 27 26 25 24 23 22 21 20 19 18 18 17 16 15 14 14 13 13 13 13 12 11 11 10 10 9 8 7 6 6 5 5 5 5 5 5 6 6 6
31 31 30 29 28 28 27 26 25 24 23 22 21 20 19 18 17 16 16 15 15 14 14 14 13 13 12 12 11 10 10 9 8 8 7 6 6 6 6 7 7 7 7
33 33 32 31 30 29 29 28 27 26 25 23 22 21 20 20 19 18 17 17 16 16 15 15 14 14 13 13 13 12 11 11 10 9 9 8 8 8 8 8 8 8 8
35 34 34 33 32 31 31 30 29 28 27 25 24 23 23 22 21 20 19 18 18 17 16 16 16 15 14 14 14 13 13 12 12 11 11 10 10 9 9 9 9 9 9
38 37 36 35 34 33 33 32 31 30 29 27 26 25 25 24 23 22 21 20 19 19 18 17 16 16 16 15 15 14 14 14 13 12 12 12 11 11 11 10 10 11 11
40 39 38 37 36 36 35 34 33 32 31 29 28 28 27 26 24 24 23 22 21 20 20 19 18 17 17 17 16 16 15 15 14 14 14 13 13 13 13 12 12 12 12
43 42 41 40 38 37 37 36 35 34 33 31 30 29 29 28 26 25 24 23 23 22 21 20 20 19 19 18 17 17 17 16 15 14 14 15 15 14 14 14 13 14 14
45 44 43 43 41 40 39 38 37 36 35 33 32 31 30 29 28 27 26 25 24 23 23 22 21 21 20 19 18 18 18 17 16 16 16 16 16 16 16 15 15 15 15
48 47 46 45 44 42 41 40 39 38 37 36 34 33 32 31 30 29 27 27 26 25 24 23 23 22 22 22 21 20 20 19 18 17 17 17 17 18 17 17 16 17 17
50 49 48 47 46 45 43 43 41 40 39 38 36 35 34 33 31 30 29 28 27 26 25 24 24 24 24 23 22 22 22 21 20 19 19 19 18 18 18 18 18 18 18
51 51 50 49 48 47 45 45 44 42 41 39 38 37 36 34 33 32 31 29 28 27 27 26 25 24 25 25 24 24 23 23 22 21 21 21 20 20 19 18 18 19 19
53 52 51 51 50 49 48 46 46 44 43 42 40 39 38 36 35 34 33 32 30 29 28 27 27 26 25 25 25 24 24 24 23 22 21 21 21 21 21 20 20 20 20
55 53 52 52 51 50 49 48 47 46 45 44 43 41 40 38 37 36 35 34 32 32 31 29 29 28 27 26 26 25 25 25 24 23 23 22 22 22 22 22 21 21 21
56 55 54 53 52 51 51 50 49 48 47 46 44 43 42 40 39 38 38 36 34 33 33 31 30 30 29 28 28 27 26 26 26 25 25 24 24 24 24 23 22 22 22
56 55 55 54 53 53 52 51 51 50 49 47 46 45 44 43 40 40 39 38 36 35 35 34 32 32 31 30 29 28 27 26 26 26 26 26 25 25 24 24 24 24 24
56 56 56 55 54 54 53 52 52 51 49 48 47 46 45 44 43 41 40 39 38 37 36 35 35 33 32 31 30 29 29 29 28 27 27 27 26 26 26 26 26 25 25
56 56 56 56 55 54 54 53 52 52 51 50 49 48 47 46 45 44 42 41 39 38 37 36 36 34 34 33 32 31 31 30 30 28 28 28 27 27 27 27 27 27 26
56 56 56 57 56 56 55 55 54 53 53 52 51 49 48 47 46 45 44 43 42 39 37 36 37 36 35 35 34 34 33 32 32 31 30 29 29 29 29 28 28 28 27

GEFSSE_500_meanwind_264.txt.gz
Wind_Speed
14 14 13 13 13 13 12 12 11 11 10 9 9 8 8 9 9 9 8 8 7 7 6 6 5 5 4 4 3 3 4 4 4 4 4 4 5 5 5 5 6 6 6
16 16 15 14 14 14 13 13 12 12 11 11 10 10 9 9 9 9 8 8 8 7 7 6 5 5 5 4 3 3 3 3 3 3 3 3 4 4 4 4 5 5 5
17 17 17 16 15 15 14 14 13 13 13 12 11 11 10 10 10 9 9 8 8 8 7 7 6 5 5 4 4 3 3 3 3 2 2 2 2 3 3 3 4 4 5
18 18 18 17 17 17 16 15 15 14 14 14 13 12 12 11 11 10 9 9 8 8 8 7 6 5 5 5 4 3 3 3 2 2 1 1 1 2 2 3 3 4 4
20 20 20 19 19 18 18 17 16 15 15 15 14 13 13 12 11 11 10 10 9 9 8 7 7 5 5 5 4 4 3 3 2 1 0 1 1 2 2 3 3 3 4
22 21 21 21 21 20 19 18 18 17 16 16 15 15 14 13 12 11 11 11 10 9 9 8 7 6 5 5 4 4 3 3 3 2 1 2 2 2 2 3 3 3 4
24 23 23 23 23 22 21 20 19 19 18 17 17 16 15 15 14 13 12 12 11 10 10 10 9 8 7 6 5 5 5 4 4 3 3 3 3 3 3 3 4 4 4
26 25 25 25 24 24 23 22 21 20 20 19 18 17 17 16 16 15 14 13 13 12 11 11 10 9 8 7 7 6 6 6 5 5 4 4 4 4 4 5 5 5 5
29 28 27 27 26 26 25 24 24 23 22 21 20 19 18 18 17 16 16 14 14 13 13 12 11 11 10 9 9 8 7 7 7 6 6 6 6 6 6 6 6 6 6
31 30 30 29 29 28 28 27 25 25 24 23 22 21 20 20 19 17 17 16 15 15 14 13 13 12 12 11 10 10 9 9 8 8 7 7 7 7 7 7 7 7 7
33 32 32 32 31 30 30 29 28 27 26 25 24 23 22 21 20 19 18 18 17 16 15 14 14 13 13 13 12 11 11 10 10 9 9 9 8 8 8 8 8 8 8
36 35 34 34 34 33 32 31 30 29 28 27 26 25 24 23 22 21 20 19 18 17 16 16 15 15 14 13 13 13 12 12 11 10 10 10 10 10 9 9 10 10 10
38 37 36 36 36 35 35 34 33 32 30 29 28 27 26 25 24 23 22 21 20 19 18 17 16 16 15 15 14 14 14 13 13 12 11 11 11 11 10 11 11 11 11
41 41 39 38 38 37 37 36 35 34 33 32 30 29 29 27 26 25 24 23 22 20 20 19 18 17 17 16 16 15 14 14 14 14 13 13 12 12 12 12 12 12 12
44 43 42 41 40 40 39 38 38 37 36 35 34 32 31 30 28 27 26 25 23 22 21 21 20 19 18 17 17 17 16 15 15 15 14 14 13 13 13 13 13 13 13
46 45 45 43 42 42 42 41 40 40 39 37 36 35 34 32 31 29 28 27 26 24 23 22 22 21 19 18 17 18 18 17 16 16 16 15 15 14 14 14 14 15 15
47 46 46 45 44 44 43 43 42 41 40 40 39 37 36 35 33 32 30 29 28 26 25 24 24 23 22 20 19 19 18 18 18 17 17 17 16 15 15 15 16 16 15
49 48 47 47 46 45 45 45 44 43 42 41 41 40 38 37 35 34 32 31 30 28 27 26 25 24 23 22 21 20 20 19 19 19 19 18 18 17 16 17 16 16 16
50 49 49 48 48 47 47 46 45 45 44 43 42 41 40 39 37 35 34 33 31 30 29 27 26 25 24 24 23 22 22 21 21 21 20 19 18 18 17 17 17 17 17
51 51 51 50 50 49 48 47 47 47 46 45 44 43 42 41 39 38 36 35 33 32 31 29 28 26 25 25 24 23 23 22 21 21 20 21 20 20 19 19 19 18 18
52 52 51 52 51 50 50 49 49 48 47 47 46 45 44 43 42 40 38 37 35 34 33 32 30 28 26 26 26 25 24 24 23 22 21 21 21 21 21 20 19 19 19
52 52 51 52 51 51 50 50 50 49 49 48 47 46 45 44 44 42 41 39 37 36 36 34 33 31 29 28 27 27 26 25 25 24 23 22 22 22 22 22 21 21 21
51 52 52 51 52 51 50 51 51 50 50 50 49 47 46 45 44 44 43 41 40 39 38 37 35 34 32 30 29 29 28 27 26 25 25 24 24 23 23 23 23 23 22
50 52 53 52 52 53 51 50 50 50 50 49 48 47 46 45 45 44 44 43 42 41 39 39 38 37 35 33 32 31 30 29 28 27 26 25 25 25 25 25 24 24 24
49 50 53 53 53 54 53 52 51 51 51 50 49 48 47 46 46 45 45 44 43 42 41 40 39 38 37 36 34 33 32 31 30 29 28 27 26 26 26 26 26 26 25
49 49 52 54 53 54 54 54 53 52 51 51 50 49 48 48 47 47 45 45 45 43 42 42 40 39 38 38 37 35 34 33 32 31 30 29 28 28 28 28 28 28 28

GEFSSE_500_meanwind_270.txt.gz
Wind_Speed
14 13 13 13 12 11 11 11 10 10 9 8 8 7 6 6 6 6 6 6 5 4 3 3 3 3 2 2 2 2 3 3 3 3 3 4 5 5 5 6 6 6 6
16 15 14 14 13 12 12 12 11 10 9 9 8 8 7 7 6 6 6 6 6 5 4 3 3 3 2 2 2 2 2 2 2 2 2 3 3 4 4 5 5 6 6
17 17 16 15 15 14 13 13 13 12 11 10 9 9 8 8 7 7 6 7 6 6 5 4 3 3 3 2 2 2 2 1 1 1 2 2 3 4 4 5 5 6 6
19 19 18 17 16 15 15 14 14 13 12 11 10 9 9 9 8 8 7 7 7 6 5 5 4 3 3 2 2 2 2 1 0 1 1 2 3 3 4 4 5 6 6
21 20 20 19 18 17 17 16 15 15 14 13 12 11 10 10 9 9 8 7 7 7 6 5 5 4 4 3 3 3 2 1 1 1 1 2 2 3 4 4 5 5 6
23 22 21 21 20 19 19 18 17 16 15 14 13 12 11 11 10 10 9 8 8 7 7 6 6 5 5 4 4 4 3 2 2 2 2 2 2 3 4 5 5 5 6
24 24 23 23 22 21 21 20 19 18 17 16 15 14 13 12 12 11 11 10 9 8 8 7 7 7 6 6 5 5 4 4 3 3 3 3 3 4 4 5 5 6 6
27 26 25 25 24 24 23 22 21 20 19 18 17 15 15 14 13 13 12 12 11 11 9 9 8 7 7 7 7 6 5 5 4 4 4 4 4 4 5 5 6 6 6
30 29 28 27 26 25 25 24 23 22 21 20 19 18 17 16 15 14 14 14 13 12 12 10 9 9 8 7 7 7 6 6 5 4 4 5 5 5 6 6 6 7 7
32 32 30 29 28 28 27 26 25 25 23 22 21 20 19 18 17 17 16 15 15 14 13 12 11 11 10 9 8 7 8 7 6 6 6 6 6 6 6 6 7 7 8
35 34 33 32 31 30 29 28 27 27 26 24 24 23 21 20 19 18 18 17 16 16 15 15 14 12 12 11 10 9 9 9 8 8 8 7 7 7 7 7 7 8 8
37 37 36 35 34 33 32 31 30 29 28 26 26 25 24 23 21 20 20 19 19 18 17 17 16 14 13 12 12 11 10 10 10 10 9 9 8 8 8 8 9 9 9
40 39 39 38 37 36 35 34 33 32 31 29 28 27 27 26 24 22 22 21 20 20 19 18 17 17 16 14 13 13 12 11 11 11 11 11 10 10 9 9 9 9 10
43 42 41 41 40 39 38 37 36 35 34 33 31 30 28 27 27 25 24 23 22 22 21 20 19 18 18 17 16 15 14 13 12 12 12 12 12 11 11 11 10 10 10
45 44 43 43 42 41 40 40 39 38 37 36 34 32 31 29 29 28 26 25 24 23 23 22 21 20 19 18 17 16 16 15 14 14 13 13 13 13 12 12 12 12 11
46 46 45 45 45 44 42 42 41 40 40 38 37 35 34 33 31 31 30 28 27 26 25 24 23 22 21 20 19 18 17 17 16 16 15 14 14 14 14 13 13 13 13
48 48 48 47 47 46 45 44 44 43 42 41 40 38 37 36 34 33 32 30 29 28 27 26 25 24 23 22 21 20 19 17 17 17 16 15 15 15 15 15 14 14 14
49 49 48 48 48 47 47 47 46 45 45 44 42 41 39 38 37 36 35 33 31 31 30 29 28 26 25 24 23 21 20 19 18 18 18 17 17 16 16 16 16 15 15
49 48 49 49 49 48 48 48 48 47 47 46 45 44 42 41 40 39 37 35 34 33 32 31 30 29 28 27 25 24 23 21 20 19 19 19 19 18 17 17 17 17 17
49 49 49 49 49 48 47 48 48 49 48 47 46 45 44 43 41 41 39 38 36 35 34 33 32 31 30 29 27 26 25 23 22 22 21 20 19 18 18 17 17 18 18
50 50 49 49 50 49 48 48 49 49 49 48 48 47 46 44 43 42 42 40 38 37 36 35 34 33 32 31 29 28 27 26 24 23 22 21 21 20 19 19 19 19 20
49 50 49 50 50 50 50 49 48 49 49 49 49 48 47 46 44 43 43 43 41 39 38 37 36 35 34 33 31 30 29 27 25 24 23 23 22 22 21 21 21 21 20
48 49 50 50 50 50 51 50 50 50 50 51 51 49 49 47 46 45 44 43 43 42 40 39 38 37 36 35 34 32 30 28 27 26 25 24 24 23 23 22 22 22 22
47 48 50 50 51 51 51 51 50 50 51 51 51 50 49 49 49 47 46 45 45 44 42 41 40 39 38 37 36 34 33 31 30 29 28 27 26 26 25 24 24 23 23
46 47 49 50 50 51 52 52 51 50 50 51 52 52 51 50 50 48 48 47 46 45 44 42 41 40 40 39 38 37 36 34 32 30 30 29 29 28 27 26 25 25 24
46 47 47 49 50 50 50 52 52 52 51 51 52 53 52 51 50 49 48 48 48 47 45 44 43 42 41 41 40 39 38 37 35 33 32 32 31 30 29 29 28 27 26

GEFSSE_500_meanwind_276.txt.gz
Wind_Speed
15 15 14 14 14 13 12 12 11 11 11 10 11 10 10 9 9 9 8 8 8 7 7 6 6 6 6 5 5 4 4 3 3 3 3 3 3 4 4 5 6 6 6
16 16 16 16 15 15 14 13 12 13 12 11 11 11 11 10 10 9 8 8 8 8 7 7 6 6 6 6 5 4 4 3 2 2 2 2 2 3 4 4 5 5 6
18 18 17 17 17 17 16 15 14 14 13 13 12 12 12 11 11 10 9 8 8 7 7 7 7 6 6 6 5 5 4 3 3 2 1 1 2 2 3 4 4 5 5
20 19 19 18 18 18 17 16 16 15 14 13 13 13 13 13 12 11 11 9 8 8 7 7 7 6 6 6 5 5 4 3 3 2 1 1 1 2 3 3 4 4 5
21 21 21 20 20 20 19 18 17 17 16 15 14 14 14 14 13 12 12 11 10 9 8 7 7 7 6 6 5 5 4 3 3 2 2 1 1 1 2 2 3 4 5
23 23 23 22 22 21 21 20 19 19 18 17 16 15 15 15 14 13 13 12 11 10 9 8 7 7 7 6 6 5 5 4 4 3 2 1 1 1 2 2 3 4 5
25 25 25 24 24 23 23 22 21 21 20 19 18 18 17 16 15 14 13 13 12 11 10 9 8 8 7 7 6 6 6 5 4 3 3 2 2 2 2 3 3 4 5
27 27 27 26 26 26 25 24 23 23 22 21 20 19 18 17 17 16 15 14 13 13 12 11 10 9 8 7 7 7 6 6 5 4 4 3 2 2 3 3 4 4 5
30 29 29 29 28 28 27 27 26 25 24 23 22 21 20 19 19 18 17 15 14 14 13 12 11 11 10 9 8 8 8 7 6 6 5 4 4 3 3 4 4 5 5
32 32 31 31 30 30 29 29 28 28 27 26 25 23 22 22 21 20 19 17 16 15 15 14 13 12 12 11 10 9 9 8 7 7 7 6 5 5 4 5 5 5 5
34 34 34 34 33 32 32 31 31 30 30 29 27 26 25 24 23 23 21 20 18 17 17 16 15 14 14 13 12 11 10 10 9 8 8 8 7 6 6 5 5 5 6
36 35 35 35 35 34 34 33 33 32 31 31 30 28 27 26 25 24 24 23 21 20 19 18 17 16 16 15 14 13 12 12 11 10 9 9 9 8 7 6 6 6 6
37 37 37 37 37 37 36 35 35 34 33 33 32 31 30 28 27 26 25 25 24 23 21 20 19 18 18 17 16 15 14 13 13 12 11 10 10 10 9 8 8 7 7
40 40 39 40 40 39 39 38 37 36 35 35 34 34 33 31 30 29 27 26 26 25 24 22 21 21 20 19 17 16 15 14 14 13 12 12 11 11 11 10 9 8 8
42 42 42 41 42 41 41 41 40 39 38 37 37 36 35 34 33 32 30 28 27 27 26 25 24 23 21 20 19 18 17 16 15 15 14 13 12 12 12 11 10 10 9
44 44 44 43 43 43 43 43 42 42 41 40 40 39 38 37 36 34 33 32 30 29 28 27 26 25 24 22 21 20 19 18 17 16 15 15 14 13 13 13 12 12 11
45 46 46 45 45 45 45 44 44 44 43 42 42 41 40 39 39 37 35 34 33 32 31 30 29 28 26 24 23 23 22 20 19 19 18 17 16 15 14 14 13 13 13
46 47 47 47 46 47 47 46 46 46 45 44 44 43 43 42 41 40 39 37 35 34 32 31 31 30 29 27 26 25 24 23 21 21 20 19 18 17 17 16 15 14 14
46 47 48 48 47 47 47 48 48 48 47 46 46 45 44 44 43 41 40 40 38 37 35 34 33 32 31 30 29 27 26 25 23 22 22 21 20 19 19 18 17 17 15
47 48 49 48 48 48 48 49 49 50 50 49 48 47 46 45 44 43 42 41 41 40 38 37 36 35 33 32 31 30 29 27 26 24 23 23 22 21 20 20 19 18 17
48 49 49 50 49 49 49 50 50 50 51 51 50 50 49 48 47 46 44 42 42 41 41 40 39 37 35 34 33 33 31 30 29 27 26 25 24 23 22 22 21 20 20
47 49 50 50 49 49 50 50 50 51 51 52 51 51 51 50 49 48 48 45 44 43 42 41 41 40 38 37 35 35 34 33 31 30 28 27 26 25 24 23 22 22 22
47 49 50 51 51 50 51 51 51 52 53 53 53 52 52 52 51 49 49 48 47 45 44 43 42 41 40 38 37 37 36 35 34 32 31 29 28 27 26 24 24 23 22
46 48 50 50 51 50 51 52 51 51 51 52 53 52 52 52 52 51 50 50 49 48 47 45 44 42 41 40 39 38 38 37 36 35 34 32 30 29 28 27 26 24 23
46 48 50 50 50 50 50 52 52 51 50 51 52 53 53 53 53 53 52 51 50 50 49 48 46 44 43 42 41 40 39 39 38 37 36 34 33 32 30 29 29 28 26
44 46 48 49 49 50 50 50 51 52 51 51 52 53 53 53 53 54 54 53 52 50 49 49 49 47 45 44 43 41 40 40 38 38 38 37 35 34 33 32 31 30 30